New Bern, NC

12:20 AM EDT on March 29, 2017 (GMT -0400)
Craven County Regional

Weather History for KEWN - February, 2014

Change the Weather History Date:

Saturday, February 22, 2014

  Actual Average Record
Temperature  
Mean Temperature 52 °F 48 °F  
Max Temperature 64 °F 59 °F 80 °F (1980)
Min Temperature 40 °F 37 °F 17 °F (1963)
Degree Days  
Heating Degree Days 13 17  
Month to date heating degree days 382 409  
Since 1 July heating degree days 1963 2049  
Cooling Degree Days 0 0  
Month to date cooling degree days 4 0  
Year to date cooling degree days 5 1  
Growing Degree Days 2 (Base 50)    
Moisture  
Dew Point 41 °F    
Average Humidity 62    
Maximum Humidity 100    
Minimum Humidity 24    
Precipitation  
Precipitation 0.00 in 0.14 in 1.71 in (1962)
Month to date precipitation 2.50 2.84  
Year to date precipitation 6.47 6.86  
Snow  
Snow 0.00 in - - ()
Month to date snowfall 11.7  
Since 1 July snowfall 11.7  
Snow Depth 0.00 in    
Sea Level Pressure  
Sea Level Pressure 30.10 in    
Wind  
Wind Speed 3 mph (NNE)    
Max Wind Speed 12 mph    
Max Gust Speed 16 mph    
Visibility 5 miles    
Events Fog    
T = Trace of Precipitation, MM = Missing Value Source: NWS Daily Summary

Daily Weather History Graph

Daily Weather History Graph

Search for Another Location

Airport or City:

Trip Planner

Search our weather history database for the weather conditions in past years. The results will help you decide how hot, cold, wet, or windy it might be!

Date:

Astronomy

Feb. 22, 2014 Rise Set
Actual Time 6:46 AM EST 5:57 PM EST
Civil Twilight 6:20 AM EST 6:23 PM EST
Nautical Twilight 5:51 AM EST 6:52 PM EST
Astronomical Twilight 5:21 AM EST 7:21 PM EST
Moon 12:34 AM EST (2/22) 11:12 AM EST (2/22)
Length of Visible Light 12h 02m
Length of Day
11h 11m
Waning Gibbous, 50% of the Moon is Illuminated
Feb 22
Waning Gibbous
Feb 22
Last Quarter
Mar 1
New
Mar 8
First Quarter
Mar 16
Full

Hourly Weather History & Observations

Time (EST) Temp. Windchill Dew Point Humidity Pressure Visibility Wind Dir Wind Speed Gust Speed Precip Events Conditions
12:54 AM 50.0 °F - 46.9 °F 89% 30.03 in 10.0 mi Calm Calm - N/A   Clear
1:06 AM 50.0 °F - 48.2 °F 94% 30.03 in 2.0 mi Calm Calm - N/A   Clear
1:19 AM 48.2 °F - 46.4 °F 93% 30.03 in 9.0 mi Calm Calm - N/A   Clear
1:38 AM 48.2 °F - 46.4 °F 93% 30.04 in 1.8 mi Calm Calm - N/A   Clear
1:44 AM 48.2 °F - 46.4 °F 93% 30.04 in 0.5 mi SSW 3.5 mph - N/A Fog Fog
1:51 AM 48.2 °F - 46.4 °F 93% 30.04 in 1.0 mi Calm Calm - N/A   Clear
1:54 AM 46.9 °F - 46.0 °F 97% 30.04 in 1.8 mi SSW 3.5 mph - N/A   Clear
2:01 AM 46.4 °F 45.2 °F 44.6 °F 93% 30.04 in 2.0 mi SSW 3.5 mph - N/A   Clear
2:08 AM 46.4 °F - 44.6 °F 93% 30.04 in 1.2 mi Calm Calm - N/A   Clear
2:18 AM 48.2 °F - 44.6 °F 87% 30.05 in 3.0 mi Calm Calm - N/A   Clear
2:43 AM 48.2 °F - 46.4 °F 93% 30.07 in 1.5 mi Calm Calm - N/A   Clear
2:47 AM 46.4 °F - 44.6 °F 93% 30.07 in 0.5 mi Calm Calm - N/A Fog Fog
2:54 AM 46.9 °F - 45.0 °F 93% 30.07 in 0.5 mi Calm Calm - N/A Fog Fog
2:57 AM 46.4 °F - 44.6 °F 93% 30.07 in 1.0 mi Calm Calm - N/A   Clear
3:03 AM 46.4 °F - 44.6 °F 93% 30.07 in 3.0 mi Calm Calm - N/A   Clear
3:07 AM 46.4 °F - 44.6 °F 93% 30.07 in 1.8 mi Calm Calm - N/A   Clear
3:16 AM 46.4 °F - 44.6 °F 93% 30.07 in 0.5 mi Calm Calm - N/A Fog Fog
3:54 AM 46.0 °F - 43.0 °F 89% 30.08 in 0.5 mi Calm Calm - N/A Fog Fog
4:03 AM 44.6 °F - 42.8 °F 93% 30.08 in 0.5 mi Calm Calm - N/A Fog Fog
4:13 AM 44.6 °F - 42.8 °F 93% 30.08 in 0.2 mi Calm Calm - N/A Fog Fog
4:28 AM 44.6 °F - 42.8 °F 93% 30.08 in 0.5 mi Calm Calm - 0.01 in Fog Fog
4:54 AM 43.0 °F - 41.0 °F 93% 30.09 in 0.5 mi Calm Calm - 0.01 in Fog Fog
5:01 AM 42.8 °F - 41.0 °F 93% 30.10 in 0.8 mi Calm Calm - N/A   Mist
5:14 AM 42.8 °F - 41.0 °F 93% 30.10 in 0.2 mi Calm Calm - N/A Fog Fog
5:50 AM 42.8 °F - 39.2 °F 87% 30.12 in 0.8 mi Calm Calm - N/A   Clear
5:54 AM 41.0 °F - 39.9 °F 96% 30.12 in 0.8 mi Calm Calm - N/A   Clear
6:03 AM 41.0 °F - 39.2 °F 93% 30.12 in 0.5 mi Calm Calm - N/A Fog Fog
6:10 AM 39.2 °F - 39.2 °F 100% 30.12 in 0.8 mi Calm Calm - N/A   Mist
6:23 AM 41.0 °F - 39.2 °F 93% 30.12 in 1.2 mi Calm Calm - N/A   Partly Cloudy
6:32 AM 42.8 °F - 39.2 °F 87% 30.13 in 3.0 mi Calm Calm - N/A   Partly Cloudy
6:54 AM 42.1 °F - 39.9 °F 92% 30.13 in 10.0 mi Calm Calm - N/A   Clear
7:54 AM 48.9 °F - 42.1 °F 77% 30.16 in 10.0 mi North 5.8 mph - N/A   Clear
8:54 AM 54.0 °F - 37.9 °F 55% 30.18 in 10.0 mi North 8.1 mph - N/A   Clear
9:54 AM 55.9 °F - 36.0 °F 47% 30.20 in 10.0 mi NNE 9.2 mph - N/A   Clear
10:54 AM 59.0 °F - 33.1 °F 38% 30.19 in 10.0 mi North 8.1 mph - N/A   Clear
11:54 AM 61.0 °F - 30.0 °F 31% 30.19 in 10.0 mi NNE 6.9 mph - N/A   Clear
12:54 PM 63.0 °F - 28.9 °F 28% 30.16 in 10.0 mi Variable 5.8 mph - N/A   Clear
1:54 PM 64.0 °F - 27.0 °F 25% 30.14 in 10.0 mi North 4.6 mph - N/A   Clear
2:54 PM 64.0 °F - 28.0 °F 26% 30.13 in 10.0 mi North 5.8 mph - N/A   Clear
3:54 PM 63.0 °F - 30.9 °F 30% 30.12 in 10.0 mi NE 6.9 mph - N/A   Clear
4:54 PM 61.0 °F - 33.1 °F 35% 30.12 in 10.0 mi ENE 4.6 mph - N/A   Clear
5:54 PM 55.0 °F - 39.0 °F 55% 30.12 in 10.0 mi Calm Calm - N/A   Clear
6:54 PM 51.1 °F - 39.0 °F 63% 30.14 in 10.0 mi Calm Calm - N/A   Clear
7:54 PM 48.9 °F - 39.9 °F 71% 30.15 in 10.0 mi Calm Calm - N/A   Clear
8:54 PM 48.0 °F - 39.9 °F 74% 30.16 in 10.0 mi Calm Calm - N/A   Clear
9:54 PM 46.9 °F - 39.9 °F 77% 30.16 in 10.0 mi Calm Calm - N/A   Clear
10:54 PM 45.0 °F - 39.9 °F 82% 30.16 in 10.0 mi Calm Calm - N/A   Clear
11:54 PM 45.0 °F - 42.1 °F 90% 30.13 in 10.0 mi Calm Calm - N/A   Clear